ドゥ・トイト-ニェウイミン-デルポルト彗星

57P/du Toit-Neujmin-Delporte (1996)

English version
Home page
Total 6,336 html files since Dec. 4, 1995
Updated on October 19, 1997

---------------------------------------------------------------------

・ プロフィール

・ 軌道要素

   The following improved orbital elements by Kenji Muraoka, are from 
  111 observations 1983 to 1997,including 9 Planets Moon and 5 minor 
  planets perturbations and non-gravitational effect of style II.  
   The mean residual is +/- 0.95 arc seconds.

      Epoch  =  1996 Mar. 18.0  TT       JDT = 2450160.5
          T  =  1996 Mar.  5.70843       +/- 0.00119 (m.e.) TT
       Peri. =  115.21425                +/- 0.00071
       Node  =  188.98625                +/- 0.00049   (2000.0)
       Incl. =    2.84566                +/- 0.00005
          q  =    1.7196893              +/- 0.0000017 AU
          e  =    0.5007745              +/- 0.0000003
          a  =    3.4447149              +/- 0.0000012 AU
          n  =    0.15416087             +/- 0.00000008
          P  =    6.393                  +/- 0.0000034  years
         A1  =   +0.263                  +/- 0.059
         A2  =   +0.02440                +/- 0.00180

・ 星図

・ 1995年 7月 2日〜1996年 4月 7日
・ 1996年 4月 7日〜1997年 5月12日

・ 光度変化

        m1 = 12.5 + 5 logΔ + 15.0 log r  [   ,120]  (              〜1996年 7月 3日)
        m1 =  1.4 + 5 logΔ + 30.0 log r  [120,   ]  (1996年 7月 3日〜              )

---------------------------------------------------------------------

軌道要素は村岡健治氏の計算によるものです。
星図は StellaNavigator Ver.2.0 for Windows (アストロアーツ 編著 / アスキー出版局刊) で作成したものです。
光度グラフはComet for Windowsで作成したものです。

---------------------------------------------------------------------

Copyright(C) 1995-2008 Seiichi Yoshida (comet@aerith.net). All rights reserved.